Погода в Есиплеве

Россия / Владимирская область     56°18′08″N   39°32′32″E
темп.,
°C
ветер,
м/с
пор.,
м/с
влажн.,
%
обл.,
%
осадки,
мм/ч
давл.,
гПа
погр.,
м
22 апреля, чт
чт2200:00+3ююз3896100 0.0 1012329
03:00+3ю3896100 0.0 1013365
06:00+3ю3995100 0.4 1014619
09:00+7ююз588275 0.4 1014721
12:00+9ююз5872100 0.1 10151143
15:00+12юз586299 0.4 10151489
18:00+11ююз497240 0.4 1015629
21:00+7ю3128811 0.7 1016295
23 апреля, пт
пт2300:00+6ююв3129320 0.0 1016303
03:00+5ююв310955 0.0 1016246
06:00+6ююв4129447 0.0 1016311
09:00+11ю5127370 0.0 1016600
12:00+15ю6115185 0.0 10152097
15:00+15ю61150100 0.1 10142095
18:00+13ю6115976 0.3 10131066
21:00+9юв4137474 0.4 1013430
24 апреля, сб
сб2400:00+8ююв311845 0.1 1011424
03:00+7юв4148997 0.3 1009493
06:00+7юв51293100 0.4 1007609
09:00+8ю51191100 1.5 10051157
12:00+3з4998100 4.5 1008508
15:00+6зсз4777100 5.3 10081053
18:00+6з257690 0.3 1008671
21:00+3зюз22855 0.4 100911
25 апреля, вс
вс2500:00+1зюз28912 0.0 1009187
03:00−1зюз38915 0.0 1009184
06:000зюз39885 0.0 1009295
09:00+5зюз47685 0.0 10101037
12:00+7зюз565197 0.2 10101844
15:00+7юз5752100 0.9 10101645
18:00+6зюз3664100 0.8 1010952
21:00+1зюз27855 0.9 1012170
26 апреля, пн
пн2600:000юз28915 0.0 1013191
03:00−1ююз28935 0.0 1013193
06:000юз39845 0.0 1013320
09:00+5юз46625 0.0 10131025
12:00+7юз4545100 0.3 10122074
15:00+8юз463997 0.4 10122160
18:00+7юз355499 0.2 1011460
21:00+3зсз1177100 0.6 101111